SCP
0 0 0 0 0 0 0 0 0 0 0 -0 0 0 0 0 0 0 0 0 0 0 0 0 0 0 0 0 0 0 0 0 0 0 0 0 0 0 0 0 0 0 0 0
0 0 0 0 0 0 0 0 0 0 0 0 0 0 0 0 0 0 0 0 0 0 0 0 0 0 0 0 0 0 0 0 0 0 0 0 0 0 0 0 0 0 0 0
0 0 0 0 0 0 0 0 0 0 0 0 0 0 0 0 0 0 0 0 0 0 0 0 0 0 0 0 0 0 0 0 0 0 0 0 0 0 0 0 0 0 0 0
0 0 0 0 0 0 0 0 0 0 0 0 0 0 0 0 0 0 0 0 0 0 0 0 0 0 0 0 0 0 0 0 0 0 0 0 0 0 0 0 0 0 0 0
0 0 0 0 0 0 0 0 0 0 0 0 0 0 0 0 0 0 0 0 0 0 0 0 0 0 0 0 0 0 0 0 0 0 0 0 0 0 0 0 0 0 0 0
0 0 0 0 0 0 0 0 0 0 0 0 0 0 0 0 0 0 0 0 0 0 0 0 0 0 0 0 0 0 0 0 0 0 0 0 0 0 0 0 0 0 0 0
0 0 0 0 0 0 0 0 0 0 0 0 0 0 0 0 0 0 0 0 0 0 0 0 0 0 0 0 0 0 0 0 0 0 0 0 0 0 0 0 0 0 0 0
0 0 0 0 0 0 0 0 0 0 0 0 0 0 0 0 0 0 0 0 0 0 0 0 0 0 0 0 0 0 0 0 0 0 0 0 0 0 0 0 0 0 0 0
0 0 0 0 0 0 0 0 0 0 0 0 0 0 0 0 0 0 0 0 0 0 0 0 0 0 0 0 0 0 0 0 0 0 0 0 0 0 0 0 0 0 0 0
0 0 0 0 0 0 0 0 0 0 0 0 0 0 0 0 0 0 0 0 0 0 0 0 0 0 0 0 0 0 0 0 0 0 0 0 0 0 0 0 0 0 0 0
-0 -0 0 0 0 0 0 0 0 0 0 0 0 0 0 0 0 0 0 0 0 0 0 0 0 0 0 0 0 0 0 0 0 0 0 0 0 0 0 0 0 0 0 0
-0 -0 -0 -0 0 0 0 0 0 0 0 0 0 0 0 0 0 0 0 0 0 0 0 0 0 0 0 0 0 0 0 0 0 0 0 0 0 0 0 0 0 0 0 0
0 0 0 0 0 0 0 0 0 0 0 0 0 0 0 0 0 0 0 0 0 0 0 0 0 0 0 0 0 0 0 0 0 0 0 0 0 0 0 0 0 0 0 0
0 0 0 0 0 0 0 0 0 0 0 0 0 0 0 0 0 0 0 0 0 0 0 0 0 0 0 0 0 0 0 0 0 0 0 0 0 0 0 0 0 0 0 0
0 0 0 0 0 0 0 0 0 0 0 0 0 0 0 0 0 0 0 0 0 0 0 0 0 0 0 0 0 0 0 0 0 0 0 0 0 0 0 0 0 0 0 0
0 0 0 0 0 0 0 0 0 0 0 0 0 0 0 0 0 0 0 0 0 0 0 0 0 0 0 0 0 0 0 0 0 0 0 0 0 0 0 0 0 0 0 0
0 0 0 0 0 0 0 0 0 0 0 0 0 0 0 0 0 0 0 0 0 0 0 0 0 0 0 0 0 0 0 0 0 0 0 0 0 0 0 0 0 0 0 0
0 0 0 0 0 0 0 0 0 0 0 0 0 0 0 0 0 0 0 0 0 0 0 0 0 0 0 0 0 0 0 0 0 0 0 0 0 0 0 0 0 0 0 0
0 0 0 0 0 0 0 0 0 0 0 0 0 0 0 0 0 0 0 0 0 0 0 0 0 0 0 0 0 0 0 0 0 0 0 0 0 0 0 0 0 0 0 0
0 0 0 0 0 0 0 0 0 0 0 0 0 0 0 0 0 0 0 0 0 0 0 0 0 0 0 0 0 0 0 0 0 0 0 0 0 0 0 0 0 0 0 0
0 0 0 0 0 0 0 0 0 0 0 0 0 0 0 0 0 0 0 0 0 0 0 0 0 0 0 0 0 0 0 0 0 0 0 0 0 0 0 0 0 0 0 0
0 0 0 0 0 0 0 0 0 0 0 0 0 0 0 0 0 0 0 0 0 0 0 0 0 0 0 0 0 0 0 0 0 0 0 0 0 0 0 0 0 0 0 0
0 0 0 0 0 0 0 0 0 0 0 0 0 0 0 0 0 0 0 0 0 0 0 0 0 0 0 0 0 0 0 0 0 0 0 0 0 0 0 0 0 0 0 0
0 0 0 0 0 0 0 0 0 0 0 0 0 0 0 0 0 0 0 0 0 0 0 0 0 0 0 0 0 0 0 0 0 0 0 0 0 0 0 0 0 0 0 0
0 0 0 0 0 0 0 0 0 0 0 0 0 0 0 0 0 0 0 0 0 0 0 0 0 0 0 0 0 0 0 0 0 0 0 0 0 0 0 0 0 0 0 0
0 0 0 0 0 0 0 0 0 0 0 0 0 0 0 0 0 0 0 0 0 0 0 0 0 0 0 0 0 0 0 0 0 0 0 0 0 0 0 0 0 0 0 0
0 0 0 0 0 0 0 0 0 0 0 0 0 0 0 0 0 0 0 0 0 0 0 0 0 0 0 0 0 0 0 0 0 0 0 0 0 0 0 0 0 0 0 0
Wind_Speed_500mb
41 33 10 15 11 20 34 53 33 60 44 67 33 23 43 62 67 68 76 76 72 68 70 58 43 39 48 51 55 58 60 67 77 82 85 85 83 85 83 83 84 85 91 97
37 37 38 25 17 26 44 50 36 57 52 61 42 49 36 55 56 73 78 76 77 83 80 64 62 63 64 67 64 63 67 70 76 81 85 87 86 87 87 88 88 90 94 97
34 33 14 19 52 53 38 31 36 40 66 35 40 34 57 55 63 77 83 84 85 88 90 83 79 73 70 65 65 65 67 70 75 79 84 86 87 88 90 89 87 89 95 99
21 17 35 32 22 44 54 58 50 41 50 58 62 83 81 67 69 78 80 81 80 78 79 69 56 53 53 56 57 58 61 68 73 77 81 84 86 87 89 88 88 88 94 98
15 30 34 9 21 29 22 50 44 51 60 79 72 46 84 73 72 79 78 70 60 54 47 37 33 35 38 41 45 49 52 56 62 70 77 80 83 84 85 87 86 85 92 95
12 18 26 26 54 25 13 23 46 41 50 53 25 17 40 22 23 20 19 19 19 17 20 34 37 38 34 32 33 37 39 42 46 55 62 68 72 75 76 78 80 84 83 77
45 36 18 16 12 21 21 20 11 48 66 57 21 34 33 20 20 25 23 26 30 34 34 29 25 25 22 21 20 21 24 26 29 33 40 49 57 64 65 71 68 58 56 58
21 32 48 3 8 25 11 12 13 19 27 34 40 40 46 39 30 32 37 25 16 12 10 7 7 6 9 8 9 8 8 11 13 17 23 33 41 48 53 48 46 46 51 56
12 3 3 33 43 57 53 37 37 34 36 33 28 25 20 19 14 12 12 11 10 10 12 16 18 22 19 23 21 16 15 13 12 13 18 24 31 37 39 41 40 41 48 56
8 13 32 55 69 62 83 66 58 40 30 30 27 21 15 14 14 19 25 28 32 32 33 35 33 32 28 31 31 30 29 25 20 15 13 15 20 27 29 32 37 41 46 50
23 27 27 54 56 68 75 63 59 46 35 31 28 22 23 28 32 34 36 33 28 28 32 36 34 32 31 29 24 23 22 22 24 26 26 25 25 24 25 27 31 38 44 51
26 14 16 23 33 38 60 66 52 40 30 21 24 30 33 39 32 32 34 31 26 24 25 28 22 20 20 21 23 16 13 13 14 14 15 14 16 20 24 27 30 36 39 39
29 24 24 39 36 32 46 47 38 36 29 26 27 30 34 38 31 29 28 29 28 30 32 32 30 29 29 27 24 25 21 15 12 12 10 10 16 20 23 31 36 37 38 40
56 40 30 39 22 26 31 38 40 34 30 30 34 34 34 35 39 39 41 42 41 39 37 34 31 30 28 26 23 19 17 13 13 11 11 10 11 12 16 20 23 26 31 35
52 48 48 31 28 31 42 48 44 41 40 38 34 35 39 44 45 46 47 43 38 34 32 28 24 24 21 18 14 12 8 6 5 2 3 7 10 13 19 22 25 27 27 25
49 48 46 39 29 42 50 47 48 46 46 50 50 48 46 45 51 49 47 42 31 30 28 24 21 21 17 13 7 3 1 2 4 5 7 8 9 12 16 20 25 28 30 31
29 32 36 37 40 56 58 51 47 48 50 48 46 48 49 48 43 35 34 33 26 24 23 20 16 15 11 7 5 3 4 6 8 8 9 10 10 12 15 18 22 26 29 32
34 32 35 39 46 51 45 47 49 43 37 41 46 47 47 47 48 47 42 38 33 28 25 20 18 14 10 6 4 4 4 5 6 8 9 10 11 13 15 18 21 23 26 32
22 22 23 29 36 45 50 48 48 48 47 51 53 49 46 46 45 44 40 35 31 24 24 21 16 14 9 5 3 1 3 3 5 8 10 12 13 15 17 20 23 25 29 32
21 23 23 29 36 40 48 46 46 51 48 44 45 46 47 46 39 36 34 30 27 26 24 20 17 13 9 6 5 3 3 3 5 7 9 11 13 16 19 23 25 28 30 33
19 26 32 35 41 41 42 44 41 44 46 43 42 42 41 43 40 35 30 27 28 25 21 16 14 12 11 9 7 5 4 4 6 9 9 11 13 16 20 23 25 28 31 33
23 28 33 36 39 44 42 40 36 40 42 43 42 40 39 38 33 30 27 20 21 17 14 11 9 8 6 4 4 6 7 10 12 14 16 18 21 23 26 28 31 33 36 38
29 33 39 43 42 44 43 39 39 39 41 40 41 38 33 34 32 24 21 19 16 12 9 6 2 3 6 9 11 13 15 18 21 23 26 29 32 34 35 37 38 40 40 40
30 33 37 41 44 48 52 50 44 43 40 40 39 37 31 26 23 21 19 14 10 6 2 2 7 11 15 18 22 25 27 30 32 34 36 37 38 40 40 41 41 41 42 42
37 43 46 47 48 50 50 49 46 43 39 38 35 31 25 20 16 16 11 6 2 5 9 14 18 22 25 28 31 33 34 36 37 39 40 41 42 43 42 43 44 44 45 46
43 47 49 49 51 50 48 43 42 39 31 30 29 26 21 16 11 7 2 4 9 14 18 23 27 31 34 36 37 39 40 41 42 44 46 46 46 48 48 49 49 50 50 50
44 45 46 48 45 41 38 35 32 32 27 22 18 17 13 8 5 5 9 13 18 22 25 29 33 37 40 42 45 47 49 50 50 53 53 55 55 56 57 57 58 58 59 59
Wind_Direction_500mb
239 242 188 198 190 199 207 228 226 251 240 259 250 241 255 273 280 281 280 282 281 273 277 289 283 277 291 276 268 258 248 240 238 237 236 235 232 231 231 232 233 231 226 219
244 237 234 233 196 211 217 234 242 252 260 258 263 271 275 263 266 271 272 275 276 278 284 289 293 291 289 281 269 258 251 246 241 239 237 236 234 233 233 233 233 231 227 221
238 239 217 234 233 231 231 226 218 234 247 266 271 264 259 266 260 260 266 271 274 277 281 285 288 286 279 275 272 262 256 251 246 242 239 238 236 234 234 234 236 233 227 220
253 251 232 239 237 225 229 238 229 247 262 261 258 270 280 267 266 272 273 274 277 279 282 280 276 273 272 267 266 262 258 252 249 244 240 238 237 235 234 233 235 233 227 222
234 236 250 282 229 212 192 244 234 230 245 257 265 281 277 273 270 273 274 274 277 278 277 274 276 274 271 267 264 261 257 254 251 247 241 238 236 234 234 234 233 230 227 222
227 240 241 231 257 200 123 248 249 214 238 252 229 236 261 254 264 259 252 257 265 261 266 282 280 274 267 265 266 265 263 259 254 249 246 242 239 236 234 235 234 230 225 219
238 259 258 250 238 144 190 243 213 202 222 241 214 232 257 255 240 261 262 268 270 272 271 266 264 257 258 262 264 255 254 253 249 246 243 239 235 234 234 233 231 226 218 218
231 244 250 132 72 209 248 193 189 206 226 226 235 234 246 268 271 262 270 275 260 240 235 241 244 248 239 231 231 219 218 220 222 224 228 227 226 227 228 226 228 217 211 213
234 242 160 330 300 305 292 286 283 242 237 240 239 239 242 253 260 247 230 214 176 155 138 122 110 95 97 103 98 105 118 130 148 168 186 205 206 207 208 221 217 208 208 215
286 268 238 235 238 265 258 251 254 259 242 235 239 233 222 201 162 148 140 131 124 122 120 116 111 107 102 102 105 105 102 100 102 117 145 175 192 211 223 226 225 226 231 236
244 264 290 272 253 238 249 253 244 232 218 209 196 176 179 166 149 143 142 137 133 130 126 121 120 121 119 113 111 106 106 113 129 138 142 155 175 195 206 218 231 235 234 240
255 228 246 279 277 273 243 235 224 209 194 178 177 170 171 166 159 159 155 149 150 145 137 126 127 134 135 133 129 126 120 131 129 133 142 159 184 196 211 220 229 233 235 237
262 246 253 269 284 271 231 221 204 194 192 191 186 184 180 170 161 159 156 150 148 138 135 129 128 126 123 123 123 124 127 133 147 152 167 199 216 220 224 225 232 237 239 240
260 261 268 260 264 243 216 197 193 187 184 181 179 173 170 168 161 156 149 143 140 135 130 126 125 124 120 117 115 116 117 132 137 141 152 171 199 219 238 246 247 247 241 241
238 237 245 261 253 224 206 198 193 175 171 164 157 159 160 154 149 147 141 138 140 137 130 124 122 116 114 112 109 109 117 124 116 154 192 222 224 227 233 237 242 244 247 251
241 242 243 246 236 210 198 190 182 166 167 164 166 164 160 158 150 146 139 137 140 140 129 124 119 112 108 101 99 88 42 309 297 289 275 269 265 256 251 246 245 244 245 246
228 236 228 226 211 198 187 177 166 151 144 141 145 148 150 149 145 146 141 142 146 139 130 123 118 108 103 100 75 33 4 346 328 311 298 289 279 267 258 252 247 245 246 248
230 232 227 224 207 192 183 174 166 156 148 155 155 158 157 157 156 149 145 143 142 138 131 125 117 112 103 90 57 1 335 328 323 313 308 298 287 275 265 258 252 250 249 252
217 216 207 197 181 171 158 154 151 150 163 156 149 151 149 145 142 141 138 135 132 133 126 125 120 114 106 93 71 331 305 311 310 303 302 297 294 287 281 277 273 270 268 268
182 176 165 159 152 153 148 148 153 155 156 149 149 152 149 141 140 141 139 145 140 134 130 132 131 131 137 146 155 193 243 279 283 277 266 273 277 278 275 274 272 270 269 269
169 153 150 147 145 146 144 144 151 151 143 146 154 153 150 143 142 138 142 144 137 138 142 146 151 158 170 180 190 211 238 259 258 256 263 263 260 259 260 262 263 264 264 265
159 153 149 145 145 136 131 136 145 144 142 146 147 145 145 135 133 139 138 137 137 141 150 161 171 181 199 222 267 285 283 273 271 272 272 271 270 270 271 271 271 271 272 272
157 155 148 143 136 130 130 133 136 138 138 136 135 132 134 133 131 127 132 136 146 152 154 151 160 276 287 296 299 295 292 291 289 286 285 284 283 282 280 280 280 280 278 277
141 138 134 132 133 134 134 129 132 132 133 128 125 122 118 121 125 126 129 132 139 146 148 316 312 307 302 301 300 299 298 296 295 293 291 289 288 287 286 284 284 282 281 280
132 130 129 131 135 128 127 126 127 123 125 122 119 119 119 119 121 124 125 113 44 340 322 311 305 303 304 303 302 300 298 295 293 292 290 290 289 288 287 285 284 282 281 281
128 127 127 127 124 122 123 126 125 120 118 119 118 115 114 113 113 110 87 331 317 312 309 309 310 310 308 306 304 302 300 299 297 295 293 291 290 288 287 285 284 283 282 281
126 125 125 122 120 120 121 122 123 121 118 111 110 107 102 90 58 359 333 323 318 316 315 312 309 306 304 303 302 301 300 298 297 295 293 291 290 289 288 286 284 283 282 282
Wind_Speed_850mb
41 33 10 15 11 20 34 53 33 60 44 67 33 23 43 62 67 68 76 76 72 68 70 58 43 39 48 51 55 58 60 67 77 82 85 85 83 85 83 83 84 85 91 97
37 37 38 25 17 26 44 50 36 57 52 61 42 49 36 55 56 73 78 76 77 83 80 64 62 63 64 67 64 63 67 70 76 81 85 87 86 87 87 88 88 90 94 97
34 33 14 19 52 53 38 31 36 40 66 35 40 34 57 55 63 77 83 84 85 88 90 83 79 73 70 65 65 65 67 70 75 79 84 86 87 88 90 89 87 89 95 99
21 17 35 32 22 44 54 58 50 41 50 58 62 83 81 67 69 78 80 81 80 78 79 69 56 53 53 56 57 58 61 68 73 77 81 84 86 87 89 88 88 88 94 98
15 30 34 9 21 29 22 50 44 51 60 79 72 46 84 73 72 79 78 70 60 54 47 37 33 35 38 41 45 49 52 56 62 70 77 80 83 84 85 87 86 85 92 95
12 18 26 26 54 25 13 23 46 41 50 53 25 17 40 22 23 20 19 19 19 17 20 34 37 38 34 32 33 37 39 42 46 55 62 68 72 75 76 78 80 84 83 77
45 36 18 16 12 21 21 20 11 48 66 57 21 34 33 20 20 25 23 26 30 34 34 29 25 25 22 21 20 21 24 26 29 33 40 49 57 64 65 71 68 58 56 58
21 32 48 3 8 25 11 12 13 19 27 34 40 40 46 39 30 32 37 25 16 12 10 7 7 6 9 8 9 8 8 11 13 17 23 33 41 48 53 48 46 46 51 56
12 3 3 33 43 57 53 37 37 34 36 33 28 25 20 19 14 12 12 11 10 10 12 16 18 22 19 23 21 16 15 13 12 13 18 24 31 37 39 41 40 41 48 56
8 13 32 55 69 62 83 66 58 40 30 30 27 21 15 14 14 19 25 28 32 32 33 35 33 32 28 31 31 30 29 25 20 15 13 15 20 27 29 32 37 41 46 50
23 27 27 54 56 68 75 63 59 46 35 31 28 22 23 28 32 34 36 33 28 28 32 36 34 32 31 29 24 23 22 22 24 26 26 25 25 24 25 27 31 38 44 51
26 14 16 23 33 38 60 66 52 40 30 21 24 30 33 39 32 32 34 31 26 24 25 28 22 20 20 21 23 16 13 13 14 14 15 14 16 20 24 27 30 36 39 39
29 24 24 39 36 32 46 47 38 36 29 26 27 30 34 38 31 29 28 29 28 30 32 32 30 29 29 27 24 25 21 15 12 12 10 10 16 20 23 31 36 37 38 40
56 40 30 39 22 26 31 38 40 34 30 30 34 34 34 35 39 39 41 42 41 39 37 34 31 30 28 26 23 19 17 13 13 11 11 10 11 12 16 20 23 26 31 35
52 48 48 31 28 31 42 48 44 41 40 38 34 35 39 44 45 46 47 43 38 34 32 28 24 24 21 18 14 12 8 6 5 2 3 7 10 13 19 22 25 27 27 25
49 48 46 39 29 42 50 47 48 46 46 50 50 48 46 45 51 49 47 42 31 30 28 24 21 21 17 13 7 3 1 2 4 5 7 8 9 12 16 20 25 28 30 31
29 32 36 37 40 56 58 51 47 48 50 48 46 48 49 48 43 35 34 33 26 24 23 20 16 15 11 7 5 3 4 6 8 8 9 10 10 12 15 18 22 26 29 32
34 32 35 39 46 51 45 47 49 43 37 41 46 47 47 47 48 47 42 38 33 28 25 20 18 14 10 6 4 4 4 5 6 8 9 10 11 13 15 18 21 23 26 32
22 22 23 29 36 45 50 48 48 48 47 51 53 49 46 46 45 44 40 35 31 24 24 21 16 14 9 5 3 1 3 3 5 8 10 12 13 15 17 20 23 25 29 32
21 23 23 29 36 40 48 46 46 51 48 44 45 46 47 46 39 36 34 30 27 26 24 20 17 13 9 6 5 3 3 3 5 7 9 11 13 16 19 23 25 28 30 33
19 26 32 35 41 41 42 44 41 44 46 43 42 42 41 43 40 35 30 27 28 25 21 16 14 12 11 9 7 5 4 4 6 9 9 11 13 16 20 23 25 28 31 33
23 28 33 36 39 44 42 40 36 40 42 43 42 40 39 38 33 30 27 20 21 17 14 11 9 8 6 4 4 6 7 10 12 14 16 18 21 23 26 28 31 33 36 38
29 33 39 43 42 44 43 39 39 39 41 40 41 38 33 34 32 24 21 19 16 12 9 6 2 3 6 9 11 13 15 18 21 23 26 29 32 34 35 37 38 40 40 40
30 33 37 41 44 48 52 50 44 43 40 40 39 37 31 26 23 21 19 14 10 6 2 2 7 11 15 18 22 25 27 30 32 34 36 37 38 40 40 41 41 41 42 42
37 43 46 47 48 50 50 49 46 43 39 38 35 31 25 20 16 16 11 6 2 5 9 14 18 22 25 28 31 33 34 36 37 39 40 41 42 43 42 43 44 44 45 46
43 47 49 49 51 50 48 43 42 39 31 30 29 26 21 16 11 7 2 4 9 14 18 23 27 31 34 36 37 39 40 41 42 44 46 46 46 48 48 49 49 50 50 50
44 45 46 48 45 41 38 35 32 32 27 22 18 17 13 8 5 5 9 13 18 22 25 29 33 37 40 42 45 47 49 50 50 53 53 55 55 56 57 57 58 58 59 59
Wind_Direction_850mb
239 242 188 198 190 199 207 228 226 251 240 259 250 241 255 273 280 281 280 282 281 273 277 289 283 277 291 276 268 258 248 240 238 237 236 235 232 231 231 232 233 231 226 219
244 237 234 233 196 211 217 234 242 252 260 258 263 271 275 263 266 271 272 275 276 278 284 289 293 291 289 281 269 258 251 246 241 239 237 236 234 233 233 233 233 231 227 221
238 239 217 234 233 231 231 226 218 234 247 266 271 264 259 266 260 260 266 271 274 277 281 285 288 286 279 275 272 262 256 251 246 242 239 238 236 234 234 234 236 233 227 220
253 251 232 239 237 225 229 238 229 247 262 261 258 270 280 267 266 272 273 274 277 279 282 280 276 273 272 267 266 262 258 252 249 244 240 238 237 235 234 233 235 233 227 222
234 236 250 282 229 212 192 244 234 230 245 257 265 281 277 273 270 273 274 274 277 278 277 274 276 274 271 267 264 261 257 254 251 247 241 238 236 234 234 234 233 230 227 222
227 240 241 231 257 200 123 248 249 214 238 252 229 236 261 254 264 259 252 257 265 261 266 282 280 274 267 265 266 265 263 259 254 249 246 242 239 236 234 235 234 230 225 219
238 259 258 250 238 144 190 243 213 202 222 241 214 232 257 255 240 261 262 268 270 272 271 266 264 257 258 262 264 255 254 253 249 246 243 239 235 234 234 233 231 226 218 218
231 244 250 132 72 209 248 193 189 206 226 226 235 234 246 268 271 262 270 275 260 240 235 241 244 248 239 231 231 219 218 220 222 224 228 227 226 227 228 226 228 217 211 213
234 242 160 330 300 305 292 286 283 242 237 240 239 239 242 253 260 247 230 214 176 155 138 122 110 95 97 103 98 105 118 130 148 168 186 205 206 207 208 221 217 208 208 215
286 268 238 235 238 265 258 251 254 259 242 235 239 233 222 201 162 148 140 131 124 122 120 116 111 107 102 102 105 105 102 100 102 117 145 175 192 211 223 226 225 226 231 236
244 264 290 272 253 238 249 253 244 232 218 209 196 176 179 166 149 143 142 137 133 130 126 121 120 121 119 113 111 106 106 113 129 138 142 155 175 195 206 218 231 235 234 240
255 228 246 279 277 273 243 235 224 209 194 178 177 170 171 166 159 159 155 149 150 145 137 126 127 134 135 133 129 126 120 131 129 133 142 159 184 196 211 220 229 233 235 237
262 246 253 269 284 271 231 221 204 194 192 191 186 184 180 170 161 159 156 150 148 138 135 129 128 126 123 123 123 124 127 133 147 152 167 199 216 220 224 225 232 237 239 240
260 261 268 260 264 243 216 197 193 187 184 181 179 173 170 168 161 156 149 143 140 135 130 126 125 124 120 117 115 116 117 132 137 141 152 171 199 219 238 246 247 247 241 241
238 237 245 261 253 224 206 198 193 175 171 164 157 159 160 154 149 147 141 138 140 137 130 124 122 116 114 112 109 109 117 124 116 154 192 222 224 227 233 237 242 244 247 251
241 242 243 246 236 210 198 190 182 166 167 164 166 164 160 158 150 146 139 137 140 140 129 124 119 112 108 101 99 88 42 309 297 289 275 269 265 256 251 246 245 244 245 246
228 236 228 226 211 198 187 177 166 151 144 141 145 148 150 149 145 146 141 142 146 139 130 123 118 108 103 100 75 33 4 346 328 311 298 289 279 267 258 252 247 245 246 248
230 232 227 224 207 192 183 174 166 156 148 155 155 158 157 157 156 149 145 143 142 138 131 125 117 112 103 90 57 1 335 328 323 313 308 298 287 275 265 258 252 250 249 252
217 216 207 197 181 171 158 154 151 150 163 156 149 151 149 145 142 141 138 135 132 133 126 125 120 114 106 93 71 331 305 311 310 303 302 297 294 287 281 277 273 270 268 268
182 176 165 159 152 153 148 148 153 155 156 149 149 152 149 141 140 141 139 145 140 134 130 132 131 131 137 146 155 193 243 279 283 277 266 273 277 278 275 274 272 270 269 269
169 153 150 147 145 146 144 144 151 151 143 146 154 153 150 143 142 138 142 144 137 138 142 146 151 158 170 180 190 211 238 259 258 256 263 263 260 259 260 262 263 264 264 265
159 153 149 145 145 136 131 136 145 144 142 146 147 145 145 135 133 139 138 137 137 141 150 161 171 181 199 222 267 285 283 273 271 272 272 271 270 270 271 271 271 271 272 272
157 155 148 143 136 130 130 133 136 138 138 136 135 132 134 133 131 127 132 136 146 152 154 151 160 276 287 296 299 295 292 291 289 286 285 284 283 282 280 280 280 280 278 277
141 138 134 132 133 134 134 129 132 132 133 128 125 122 118 121 125 126 129 132 139 146 148 316 312 307 302 301 300 299 298 296 295 293 291 289 288 287 286 284 284 282 281 280
132 130 129 131 135 128 127 126 127 123 125 122 119 119 119 119 121 124 125 113 44 340 322 311 305 303 304 303 302 300 298 295 293 292 290 290 289 288 287 285 284 282 281 281
128 127 127 127 124 122 123 126 125 120 118 119 118 115 114 113 113 110 87 331 317 312 309 309 310 310 308 306 304 302 300 299 297 295 293 291 290 288 287 285 284 283 282 281
126 125 125 122 120 120 121 122 123 121 118 111 110 107 102 90 58 359 333 323 318 316 315 312 309 306 304 303 302 301 300 298 297 295 293 291 290 289 288 286 284 283 282 282